Location: Newark
(12.4436°N, 0.6167°W)
Time: 23:47:32
(UTC+00:00)

deb Explorer IX - Pass Details

Date: 14 December 2019
Orbit: 548 x 1101 km, 38.8° (Epoch: 17 January)

Event Time Altitude Azimuth Distance (km) Brightness Sun altitude
Rises 20:12:18 0° 324° (NW) 3,690 ? -35.7°
Enters shadow 20:14:48 - 333° (NNW) 2,945 ? -36.3°
Reaches altitude 10° 20:15:18 10° 336° (NNW) 2,811 - -36.4°
Maximum altitude 20:21:09 28° 33° (NNE) 1,882 - -37.8°
Drops below altitude 10° 20:27:15 10° 90° (E) 2,949 - -39.2°
Sets 20:30:27 0° 101° (E) 3,900 - -39.9°
